Regional Weather Roundup
Issued by NWS

Home | Current Version | Previous Version | Graphics & Text | Print | Product List | Glossary On
Versions: 1 2 3 4 5 6 7 8 9 10 11 12 13 14 15 16 17 18 19 20 21 22 23 24 25 26 27 28 29 30 31 32 33 34 35 36 37 38 39 40 41 42 43 44 45 46 47 48 49 50
000
ASUS43 KBIS 230702
RWRND

NORTH DAKOTA REGIONAL WEATHER ROUNDUP
NATIONAL WEATHER SERVICE BISMARCK ND
100 AM CST THU NOV 23 2017

NOTE: "FAIR" INDICATES FEW OR NO CLOUDS BELOW 12,000 FEET WITH NO
SIGNIFICANT WEATHER AND/OR OBSTRUCTIONS TO VISIBILITY.


NDZ001>003-009>011-017-230800-
NORTHWEST NORTH DAKOTA

CITY           SKY/WX    TMP DP  RH WIND       PRES   REMARKS
WILLISTON      CLOUDY    24  21  88 S3        29.90F
MINOT          CLOUDY    25  21  85 SW7       29.91F WCI  17
MINOT AFB      CLOUDY    21  19  90 S7        29.90F WCI  13
$$

NDZ018>021-031>035-040>046-230800-
SOUTHWEST NORTH DAKOTA

CITY           SKY/WX    TMP DP  RH WIND       PRES   REMARKS
BISMARCK       CLOUDY    23  19  85 CALM      29.97F
DICKINSON      CLEAR     31  30  96 S7        29.91F
GARRISON         N/A     26  23  88 SW3       29.93F
HETTINGER ARPT CLOUDY    34  31  88 NW5       29.98F
$$

NDZ004>008-012>016-024-026-027-054-230800-
NORTHEAST NORTH DAKOTA

CITY           SKY/WX    TMP DP  RH WIND       PRES   REMARKS
GRAND FORKS    CLOUDY    20  18  92 W5        29.94F WCI  13
GRND FRKS AFB  CLOUDY    20  17  90 NW3       29.94F
DEVILS LAKE    CLOUDY    29  26  89 W9        29.93F
$$

NDZ022-023-025-028>030-036>039-047>053-230800-
SOUTHEAST NORTH DAKOTA

CITY           SKY/WX    TMP DP  RH WIND       PRES   REMARKS
FARGO          CLOUDY    20  15  81 W5        29.96R WCI  13
JAMESTOWN      CLOUDY    29  24  82 W6        29.95F
$$





USA.gov is the U.S. government's official web portal to all federal, state and local government web resources and services.